Location: Sternwarte_Laufen
(47.9344°N, 12.9346°E)
Time: 15:15:34
(UTC+02:00)

ISS - Pass Details

Date: 23 March 2017
Orbit: 399 x 409 km, 51.6° (Epoch: 29 March)

Event Time Altitude Azimuth Distance (km) Brightness Sun altitude
Exits shadow 04:29:56 22° 187° (S) 952 -2.2 -16.4°
Drops below altitude 10° 04:31:43 10° 160° (SSE) 1,469 -1.0 -16.1°
Sets 04:34:00 0° 147° (SSE) 2,326 0.2 -15.8°
